Вернуться в каталог

COSMOS 1448

АктивенВоенныеPO
NORAD 13949·PAYLOAD·🇷🇺 Russia

Запущен Mar 30, 1983 с Plesetsk Cosmodrome

Loading…

Ближайшие Пролёты (ближайшие 24 часа)

TLE

СвежийSource: Space-Track

Эпоха: Sep 14, 2026, 18:18 UTC

1 13949U 83023A   26257.76272466  .00000055  00000-0  41286-4 0  9999
2 13949  82.9610   7.6307 0028637 232.0168 291.8914 13.76144084182176

Отслеживайте COSMOS 1448 в реальном времени с AllMySat

Download on the App Store